Weather History for Cumberland, MD

Change the Weather History Date:

Sunday, May 27, 2012

  Actual Average (KMRB) Record (KMRB)
Temperature  
Mean Temperature 76 °F 64 °F  
Max Temperature 87 °F 76 °F 95 °F (1932)
Min Temperature 64 °F 53 °F 37 °F (1958)
Degree Days  
Heating Degree Days 0 3  
Month to date heating degree days 158  
Since 1 July heating degree days 5215  
Cooling Degree Days 10 3  
Month to date cooling degree days 40  
Year to date cooling degree days 49  
Growing Degree Days 26 (Base 50)    
Moisture  
Dew Point 69 °F    
Average Humidity 89    
Maximum Humidity 100    
Minimum Humidity 61    
Precipitation  
Precipitation 0.00 in 0.13 in 1.47 in (1968)
Month to date precipitation 3.57  
Year to date precipitation 15.21  
Sea Level Pressure  
Sea Level Pressure 30.16 in    
Wind  
Wind Speed 2 mph (NNW)    
Max Wind Speed 16 mph    
Max Gust Speed 32 mph    
Visibility 7 miles    
Events      
T = Trace of Precipitation, MM = Missing Value Source: NWS Daily Summary

Daily Weather History Graph

Daily Weather History Graph

Search for Another Location

Airport:

Trip Planner

Search our weather history database for the weather conditions in past years. The results will help you decide how hot, cold, wet, or windy it might be!

Date:

Astronomy

May. 27, 2012 Rise Set
Actual Time 5:51 AM EDT 8:33 PM EDT
Civil Twilight 5:20 AM EDT 9:04 PM EDT
Nautical Twilight 4:40 AM EDT 9:44 PM EDT
Astronomical Twilight 3:56 AM EDT 10:29 PM EDT
Moon 11:54 AM EDT 12:39 AM EDT
Length of Visible Light 15h 44m
Length of Day
14h 41m
Waxing Crescent, 38% of the Moon is Illuminated
May 27
Waxing Crescent
May 28
First Quarter
Jun 4
Full
Jun 11
Last Quarter
Jun 19
New

Hourly Weather History & Observations

Time (EDT) Temp. Heat Index Dew Point Humidity Pressure Visibility Wind Dir Wind Speed Gust Speed Precip Events Conditions
12:03 AM 68.0 °F - 68.0 °F 100% 30.18 in 10.0 mi Calm Calm - N/A   Clear
12:25 AM 68.0 °F - 68.0 °F 100% 30.18 in 10.0 mi Calm Calm - N/A   Clear
12:46 AM 68.0 °F - 68.0 °F 100% 30.18 in 10.0 mi Calm Calm - N/A   Clear
1:07 AM 68.0 °F - 68.0 °F 100% 30.17 in 10.0 mi North 5.8 mph - N/A   Clear
1:29 AM 68.0 °F - 68.0 °F 100% 30.17 in 10.0 mi North 4.6 mph - N/A   Clear
1:50 AM 68.0 °F - 68.0 °F 100% 30.18 in 10.0 mi North 5.8 mph - N/A   Clear
2:11 AM 68.0 °F - 68.0 °F 100% 30.18 in 10.0 mi North 4.6 mph - N/A   Clear
2:32 AM 68.0 °F - 68.0 °F 100% 30.18 in 10.0 mi NNW 3.5 mph - N/A   Clear
2:54 AM 66.2 °F - 66.2 °F 100% 30.17 in 10.0 mi North 4.6 mph - N/A   Clear
3:15 AM 66.2 °F - 66.2 °F 100% 30.17 in 7.0 mi Calm Calm - N/A   Clear
3:36 AM 66.2 °F - 66.2 °F 100% 30.17 in 7.0 mi NNE 3.5 mph - N/A   Clear
3:58 AM 64.4 °F - 64.4 °F 100% 30.16 in 4.0 mi Calm Calm - N/A   Clear
4:19 AM 64.4 °F - 64.4 °F 100% 30.16 in 1.8 mi Calm Calm - N/A   Unknown
4:40 AM 64.4 °F - 64.4 °F 100% 30.16 in 3.0 mi Calm Calm - N/A   Unknown
5:02 AM 64.4 °F - 64.4 °F 100% 30.16 in 3.0 mi Calm Calm - N/A   Overcast
5:23 AM 64.4 °F - 64.4 °F 100% 30.17 in 3.0 mi Calm Calm - N/A   Overcast
5:44 AM 64.4 °F - 64.4 °F 100% 30.17 in 1.8 mi Calm Calm - N/A   Overcast
6:06 AM 64.4 °F - 64.4 °F 100% 30.17 in 0.8 mi Calm Calm - N/A   Overcast
6:27 AM 64.4 °F - 64.4 °F 100% 30.18 in 4.0 mi Calm Calm - N/A   Overcast
6:48 AM 64.4 °F - 64.4 °F 100% 30.18 in 3.0 mi NE 3.5 mph - N/A   Overcast
7:09 AM 64.4 °F - 64.4 °F 100% 30.19 in 1.5 mi Calm Calm - N/A   Overcast
7:31 AM 64.4 °F - 64.4 °F 100% 30.19 in 2.5 mi Calm Calm - N/A   Overcast
7:52 AM 66.2 °F - 66.2 °F 100% 30.19 in 3.0 mi Calm Calm - N/A   Overcast
8:13 AM 66.2 °F - 66.2 °F 100% 30.19 in 3.0 mi Calm Calm - N/A   Overcast
8:34 AM 68.0 °F - 68.0 °F 100% 30.19 in 4.0 mi Calm Calm - N/A   Overcast
8:56 AM 68.0 °F - 68.0 °F 100% 30.20 in 5.0 mi Calm Calm - N/A   Overcast
9:17 AM 69.8 °F - 68.0 °F 94% 30.20 in 5.0 mi Calm Calm - N/A   Overcast
9:38 AM 71.6 °F - 68.0 °F 88% 30.20 in 5.0 mi Calm Calm - N/A   Overcast
9:59 AM 71.6 °F - 69.8 °F 94% 30.19 in 4.0 mi SSW 3.5 mph - N/A   Overcast
10:21 AM 73.4 °F - 69.8 °F 88% 30.19 in 4.0 mi Calm Calm - N/A   Mostly Cloudy
10:42 AM 75.2 °F - 69.8 °F 83% 30.18 in 4.0 mi SSW 3.5 mph - N/A   Mostly Cloudy
11:03 AM 77.0 °F - 71.6 °F 83% 30.18 in 5.0 mi SW 4.6 mph - N/A   Scattered Clouds
11:25 AM 77.0 °F - 71.6 °F 83% 30.17 in 5.0 mi South 6.9 mph - N/A   Clear
11:46 AM 78.8 °F - 71.6 °F 78% 30.17 in 7.0 mi SSW 5.8 mph - N/A   Clear
12:07 PM 78.8 °F - 71.6 °F 78% 30.16 in 7.0 mi South 5.8 mph - N/A   Clear
12:28 PM 80.6 °F 84.6 °F 71.6 °F 74% 30.16 in 5.0 mi Calm Calm - N/A   Clear
12:50 PM 82.4 °F 87.2 °F 71.6 °F 70% 30.15 in 7.0 mi SW 3.5 mph - N/A   Clear
1:11 PM 84.2 °F 90.9 °F 73.4 °F 70% 30.14 in 10.0 mi SE 4.6 mph - N/A   Clear
1:32 PM 86.0 °F 93.4 °F 73.4 °F 66% 30.14 in 10.0 mi SE 5.8 mph - N/A   Clear
1:54 PM 87.8 °F 95.6 °F 73.4 °F 62% 30.12 in 10.0 mi ESE 3.5 mph - N/A   Clear
2:15 PM 87.8 °F 95.6 °F 73.4 °F 62% 30.12 in 10.0 mi South 5.8 mph - N/A   Scattered Clouds
2:36 PM 86.0 °F 93.4 °F 73.4 °F 66% 30.12 in 10.0 mi Calm Calm - N/A   Scattered Clouds
2:57 PM 82.4 °F 88.2 °F 73.4 °F 74% 30.12 in 10.0 mi WNW 3.5 mph - N/A   Mostly Cloudy
3:19 PM 82.4 °F 88.2 °F 73.4 °F 74% 30.11 in 10.0 mi NW 3.5 mph - N/A   Scattered Clouds
3:40 PM 82.4 °F 88.2 °F 73.4 °F 74% 30.11 in 10.0 mi West 3.5 mph - N/A   Scattered Clouds
4:01 PM 80.6 °F 86.2 °F 75.2 °F 84% 30.10 in 7.0 mi WNW 3.5 mph - N/A   Mostly Cloudy
4:22 PM 80.6 °F 86.2 °F 75.2 °F 84% 30.09 in 7.0 mi Calm Calm - N/A   Scattered Clouds
4:44 PM 80.6 °F 87.1 °F 77.0 °F 89% 30.09 in 7.0 mi Calm Calm - N/A   Scattered Clouds
5:05 PM 82.4 °F 90.9 °F 77.0 °F 84% 30.08 in 7.0 mi Calm Calm - N/A   Clear
5:26 PM 84.2 °F 94.1 °F 77.0 °F 79% 30.08 in 10.0 mi West 3.5 mph - N/A   Clear
5:48 PM 84.2 °F 92.3 °F 75.2 °F 74% 30.08 in 10.0 mi Calm Calm - N/A   Scattered Clouds
6:09 PM 82.4 °F 89.5 °F 75.2 °F 79% 30.10 in 10.0 mi Calm Calm - N/A   Scattered Clouds
6:30 PM 82.4 °F 88.2 °F 73.4 °F 74% 30.09 in 10.0 mi Calm Calm - N/A   Clear
6:51 PM 82.4 °F 89.5 °F 75.2 °F 79% 30.08 in 10.0 mi Calm Calm - N/A   Clear
7:13 PM 82.4 °F 88.2 °F 73.4 °F 74% 30.11 in 10.0 mi NNE 4.6 mph - N/A   Scattered Clouds
7:34 PM 77.0 °F - 62.6 °F 61% 30.14 in 10.0 mi NE 16.1 mph 32.2 mph N/A   Mostly Cloudy
7:55 PM 71.6 °F - 62.6 °F 73% 30.15 in 10.0 mi NNE 8.1 mph 24.2 mph N/A   Overcast
8:16 PM 68.0 °F - 64.4 °F 88% 30.19 in 5.0 mi NNW 13.8 mph 19.6 mph N/A   Overcast
8:38 PM 64.4 °F - 64.4 °F 100% 30.18 in 1.8 mi ENE 8.1 mph 19.6 mph N/A   Overcast
8:59 PM 64.4 °F - 64.4 °F 100% 30.17 in 2.5 mi Calm Calm - N/A   Overcast
9:20 PM 64.4 °F - 64.4 °F 100% 30.14 in 5.0 mi North 6.9 mph - N/A   Overcast
9:42 PM 64.4 °F - 64.4 °F 100% 30.17 in 10.0 mi North 4.6 mph - N/A   Scattered Clouds
10:03 PM 64.4 °F - 64.4 °F 100% 30.17 in 10.0 mi Calm Calm - N/A   Clear
10:24 PM 64.4 °F - 64.4 °F 100% 30.18 in 10.0 mi Calm Calm - N/A   Clear
10:45 PM 64.4 °F - 64.4 °F 100% 30.18 in 10.0 mi Calm Calm - N/A   Clear
11:07 PM 64.4 °F - 64.4 °F 100% 30.19 in 7.0 mi Calm Calm - N/A   Mostly Cloudy
11:28 PM 64.4 °F - 64.4 °F 100% 30.20 in 4.0 mi North 3.5 mph - N/A   Mostly Cloudy